Location: Podia
(1.5569°N, 32.3469°E)
Time: 22:28:52
(UTC+00:00)

S-56A Canister/Altair - Pass Details

Date: 01 October 2020
Orbit: 633 x 2499 km, 38.9° (Epoch: 28 October)

Event Time Altitude Azimuth Distance (km) Brightness Sun altitude
Rises 18:07:10 0° 326° (NW) 5,290 12.2 -36.8°
Reaches altitude 10° 18:11:47 10° 337° (NNW) 3,958 11.3 -38.0°
Enters shadow 18:15:54 21° 355° (N) 2,872 10.4 -39.0°
